EHI
4 2 0 0 0 0 0 0 0 0 0 0 0 0 0 0 0 0 0 0 0 0 0 0 0 0 0 0 0 0 0 0 0 0 1 0 0 0 0 0 0 0 0 0 1 2 2 1 0
2 1 0 0 0 0 0 0 0 0 0 0 0 0 0 0 0 0 0 0 0 0 0 0 0 0 0 0 0 0 0 0 0 1 1 1 0 0 0 0 0 0 0 0 0 1 1 1 0
0 0 0 0 0 0 0 0 0 0 0 0 0 0 0 0 0 0 0 0 0 0 0 0 0 0 0 0 0 0 1 1 1 2 2 1 0 0 0 0 0 0 0 0 0 0 0 0 0
0 0 0 0 0 0 0 0 0 0 0 0 0 0 0 0 0 1 1 0 0 0 0 0 0 0 0 0 1 2 4 4 2 1 1 1 0 0 0 0 0 0 0 0 0 0 0 0 0
0 0 0 0 0 0 0 0 0 0 0 0 0 0 0 0 0 2 2 1 0 0 0 0 0 0 0 0 1 2 4 3 1 0 0 1 0 0 0 0 0 0 0 0 0 0 0 0 0
0 0 0 0 0 0 0 0 0 0 0 0 0 0 0 0 0 1 2 1 0 0 0 0 0 0 0 0 1 1 1 1 0 0 0 0 0 0 0 0 0 0 0 0 0 0 0 0 0
0 0 0 0 0 0 0 0 0 0 0 0 0 0 0 0 1 2 2 1 1 1 0 0 0 0 0 0 0 0 0 0 0 0 0 0 0 0 0 0 0 0 0 0 0 0 0 0 0
0 0 0 0 0 0 0 0 0 0 0 0 0 0 0 1 3 4 3 1 1 1 0 0 0 0 0 0 0 0 0 0 0 0 0 0 0 0 0 0 0 0 0 0 0 0 0 1 1
0 0 0 0 0 0 0 0 0 0 0 0 0 0 1 4 7 8 6 3 1 1 0 0 0 0 0 0 0 0 0 0 0 0 0 0 0 0 0 0 0 0 0 0 0 1 1 1 2
0 0 0 0 0 0 0 0 0 0 0 0 0 1 4 7 9 9 8 5 3 1 0 0 0 0 0 0 0 0 0 0 0 0 0 0 0 0 0 0 0 0 0 0 0 1 1 1 1
0 0 0 0 0 0 0 0 0 0 0 0 0 1 5 9 10 10 9 7 5 3 1 0 0 0 0 0 0 0 0 0 0 0 0 0 0 0 0 0 0 0 0 0 0 1 1 0 0
0 0 0 0 0 0 0 0 0 0 0 0 0 1 5 8 9 9 9 8 7 5 3 1 0 0 0 0 0 0 0 0 0 0 0 0 0 0 0 0 0 0 0 0 0 0 0 0 0
0 0 0 0 0 0 0 0 0 0 0 0 0 1 3 6 8 9 9 8 7 6 4 1 0 0 0 0 0 0 0 0 0 0 0 0 0 0 0 0 0 0 0 0 0 0 0 0 0
0 0 0 0 0 0 0 0 0 0 0 0 0 0 1 3 5 7 7 7 7 6 5 3 1 0 0 0 0 0 0 0 0 0 0 0 0 0 0 0 0 0 0 0 0 0 0 0 0
0 0 0 0 0 0 0 0 0 0 0 0 0 0 0 1 2 4 5 5 6 5 5 5 3 1 0 0 0 0 0 0 0 0 0 0 0 0 0 0 0 0 0 0 0 0 0 0 0
0 0 0 0 0 0 0 0 0 0 0 0 0 0 0 0 1 2 2 3 4 4 5 6 5 3 1 0 0 0 0 0 0 0 0 0 0 0 0 0 0 0 0 0 0 0 0 0 0
0 0 0 0 0 0 0 0 0 0 0 0 0 0 0 0 0 1 1 1 2 3 4 6 6 4 2 0 0 0 0 0 0 0 0 0 0 0 0 0 0 0 0 0 0 0 0 0 0
0 0 0 0 0 0 0 0 0 0 0 0 0 0 0 0 0 0 0 0 1 1 3 6 6 4 2 1 1 0 0 0 0 0 0 0 0 0 0 0 0 0 0 0 0 0 0 0 0
0 0 0 0 0 0 0 0 0 0 0 0 0 0 0 0 0 0 0 0 0 0 2 4 4 3 3 3 2 1 0 0 0 0 0 0 0 0 0 0 0 0 0 0 0 0 0 0 0
0 0 0 0 0 0 0 0 0 0 0 0 0 0 0 0 0 0 0 0 0 0 1 2 2 2 3 3 3 2 0 0 0 0 0 0 0 0 0 0 0 0 0 0 0 0 0 0 0
0 0 0 0 0 0 0 0 0 0 0 0 0 0 0 0 0 0 0 0 0 0 0 0 0 1 2 3 3 1 0 0 0 0 0 0 0 0 0 0 0 0 0 0 0 0 0 0 0
0 0 0 0 0 0 0 0 0 0 0 0 0 0 0 0 0 0 0 0 0 0 0 0 0 0 1 3 3 1 0 0 0 0 0 0 0 0 0 0 0 0 0 0 0 0 0 0 0
0 0 0 0 0 0 0 0 0 0 0 0 0 0 0 0 0 0 0 0 0 0 0 0 0 0 1 2 2 1 0 0 0 0 0 0 0 0 0 0 0 0 0 0 0 0 0 0 0
0 0 0 0 0 0 0 0 0 0 0 0 0 0 0 0 0 0 0 0 0 0 0 0 0 0 0 1 1 1 0 0 0 0 0 0 0 0 0 0 0 0 0 0 0 0 0 0 0
0 0 0 0 0 0 0 0 0 0 0 0 0 0 0 0 0 0 0 0 0 0 0 0 0 0 0 0 0 0 0 0 0 0 0 0 0 0 0 0 0 0 0 0 0 0 0 0 0
0 0 0 0 0 0 0 0 0 0 0 0 0 0 0 0 0 0 0 0 0 0 0 0 0 0 0 0 0 0 0 0 0 0 0 0 0 0 0 0 0 0 0 0 0 0 0 0 0
0 0 0 0 0 0 0 0 0 0 0 0 0 0 0 0 0 0 0 0 0 0 0 0 0 0 0 0 0 0 0 0 0 0 0 0 0 0 0 0 0 0 0 0 0 0 0 0 0
0 0 0 0 0 0 0 0 0 0 0 0 0 0 0 0 0 0 0 0 0 0 0 0 0 0 0 0 0 0 0 0 0 0 0 0 0 0 0 0 0 0 0 0 0 0 0 0 0
0 0 0 0 0 0 0 0 0 0 0 0 0 0 0 0 0 0 0 0 0 0 0 0 0 0 0 0 0 0 0 0 0 0 0 0 0 0 0 0 0 0 0 0 0 0 0 0 0
0 0 0 0 0 0 0 0 0 0 0 0 0 0 0 0 0 0 0 0 0 0 0 0 0 0 0 0 0 0 0 0 0 0 0 0 0 0 0 0 0 0 0 0 0 0 0 0 0
Wind_Speed
1 3 3 4 6 5 2 2 1 1 2 2 3 5 6 4 2 1 1 1 2 2 1 1 3 4 4 4 4 5 6 6 7 8 8 8 8 8 9 9 9 8 8 8 9 9 9 9 10
1 2 4 5 5 3 2 2 0 1 3 3 4 4 5 4 2 3 1 0 2 2 1 2 4 5 5 5 5 6 7 7 7 7 7 8 8 8 9 9 9 9 9 9 9 9 9 9 9
2 3 4 4 3 3 2 1 1 2 3 2 3 4 3 2 2 2 1 2 3 2 2 1 5 5 6 6 7 8 8 7 7 7 7 8 8 9 9 9 9 10 10 10 10 10 10 10 10
3 4 5 5 2 1 2 1 2 3 3 3 3 4 3 2 3 3 3 4 4 2 2 1 5 6 6 7 7 8 8 7 7 7 7 8 8 9 9 9 9 10 10 10 11 11 11 10 10
4 4 5 3 1 2 1 1 2 3 2 2 3 3 2 3 4 6 5 4 4 2 1 1 5 6 6 7 7 8 8 8 8 9 9 9 9 9 9 9 9 10 10 10 11 11 11 11 11
5 5 4 1 1 2 1 1 3 3 2 2 3 3 1 1 4 4 4 4 3 3 2 2 4 5 6 6 7 7 7 7 8 9 10 9 9 9 9 9 10 10 10 11 11 11 11 11 12
4 4 3 2 0 1 0 1 3 4 3 2 3 4 1 1 2 4 4 3 3 2 2 2 2 3 4 6 6 6 7 7 8 9 9 9 8 8 9 9 9 9 10 11 11 11 11 12 12
4 5 2 1 1 1 1 1 2 4 3 2 3 5 3 4 4 4 4 4 3 2 2 2 2 2 2 2 4 5 6 7 7 8 8 8 8 8 8 8 9 9 10 10 11 11 11 12 12
4 5 1 3 3 1 1 2 2 2 4 2 1 2 3 7 7 6 4 2 2 2 1 1 1 2 2 2 3 4 5 6 6 6 7 7 4 4 4 7 8 9 10 10 11 11 12 12 11
4 3 4 3 3 2 2 2 2 3 3 2 2 3 6 8 7 6 5 4 3 2 1 1 1 1 1 1 2 2 3 3 4 3 4 3 3 3 5 7 9 9 9 10 11 12 11 9 5
3 4 2 1 2 3 3 3 3 4 1 2 3 4 6 7 6 5 5 4 4 3 2 2 1 1 1 1 1 1 2 2 3 3 3 3 3 3 4 3 4 5 7 5 7 7 5 5 4
3 1 2 1 2 3 3 3 3 2 2 2 4 7 7 7 5 5 5 4 3 2 2 2 2 2 1 1 1 1 1 1 2 2 2 2 2 3 2 2 3 3 2 4 4 3 5 5 5
2 1 1 2 4 4 5 3 2 1 2 4 6 7 6 5 4 3 3 2 2 2 2 2 2 2 2 1 1 1 1 1 1 1 2 2 2 2 2 2 2 3 3 3 3 4 4 5 5
1 2 2 2 2 3 5 3 3 1 2 5 6 5 4 4 4 2 2 2 2 2 3 2 3 3 2 2 1 1 1 1 1 1 1 2 2 2 2 2 2 2 2 3 3 4 4 3 3
3 4 4 2 2 1 4 3 1 1 3 4 3 3 3 2 2 3 3 2 2 2 2 2 3 3 2 2 1 1 1 1 1 1 1 2 2 3 2 2 2 2 2 3 3 4 3 3 4
4 4 2 3 1 1 4 1 2 1 4 3 2 2 2 2 2 2 2 2 2 1 1 1 2 2 2 2 1 1 1 1 1 1 1 2 2 3 3 2 2 2 2 2 3 3 3 3 3
4 1 1 3 2 2 3 2 2 1 3 2 2 2 2 1 2 1 1 2 2 2 2 1 1 2 2 2 1 2 2 1 1 1 1 2 2 3 3 2 2 2 3 2 3 2 2 2 2
1 1 0 2 1 3 2 1 2 0 2 2 1 1 2 2 3 2 1 1 1 1 2 2 1 2 2 2 1 1 2 1 1 1 1 2 2 3 3 2 2 3 3 2 2 3 3 2 2
2 2 1 2 1 2 1 1 2 1 1 1 1 1 2 3 2 0 1 1 2 1 1 2 2 2 2 1 1 1 1 0 1 1 2 2 2 3 3 2 2 2 2 2 3 3 3 2 1
2 1 1 2 1 2 1 2 2 1 2 2 3 3 3 2 1 0 1 1 1 2 2 1 1 2 1 1 1 1 2 1 0 1 1 1 2 2 3 3 2 2 3 3 2 2 2 1 1
1 3 3 2 2 3 2 4 2 1 0 0 1 2 2 3 3 2 1 1 1 1 2 2 1 1 1 1 2 2 2 2 1 1 1 1 1 2 2 3 3 3 3 2 2 2 3 2 1
3 4 3 3 2 1 1 2 4 2 2 2 2 1 2 2 2 1 1 1 1 2 1 2 2 1 1 2 2 3 2 2 1 1 0 0 1 1 2 3 3 3 2 2 2 2 2 3 1
3 2 3 2 2 1 1 1 6 2 2 3 2 2 2 1 2 2 2 2 2 2 2 2 2 1 1 2 3 3 3 2 1 1 1 1 0 0 1 2 2 2 2 2 2 2 2 2 2
4 5 5 4 4 1 2 3 5 2 3 3 2 2 2 1 1 1 0 0 1 1 1 2 2 1 1 2 2 3 4 3 3 2 1 1 0 0 0 1 2 2 2 2 2 2 2 2 2
5 5 4 4 3 3 2 2 5 3 2 3 3 2 2 2 1 1 1 1 0 1 1 2 2 1 1 1 1 2 3 4 4 3 3 2 1 1 2 2 2 1 2 2 2 2 2 2 2
2 6 5 3 3 4 2 3 5 2 2 0 1 2 2 2 2 2 1 1 0 0 1 1 2 1 1 1 1 1 2 2 2 2 2 3 3 3 2 2 2 2 2 2 2 1 1 1 2
3 2 4 5 1 1 3 4 4 1 2 2 1 1 2 2 2 2 1 1 0 0 1 2 2 1 1 2 1 1 2 2 2 2 2 2 2 2 2 2 2 2 2 2 2 1 1 1 2
3 6 4 4 3 2 4 3 4 4 3 2 1 2 2 2 2 2 1 1 1 1 1 0 1 1 2 1 1 1 1 2 2 2 2 2 2 1 2 2 2 2 2 2 2 2 1 2 1
2 3 4 3 3 4 2 5 4 5 4 4 4 3 3 3 3 3 2 2 1 0 0 0 0 0 0 1 1 0 0 0 1 1 2 2 2 2 2 2 2 2 2 2 2 2 2 2 1
3 4 5 4 2 3 3 7 3 2 2 2 2 2 2 2 2 3 3 2 1 1 0 0 0 1 1 1 1 0 0 0 0 1 2 2 2 2 3 3 3 2 2 3 3 3 3 3 2
Wind_Direction
39 77 78 59 55 51 36 309 274 37 50 35 59 84 97 92 103 140 264 115 125 136 180 147 107 99 93 88 81 94 104 96 92 90 88 85 82 81 80 78 79 81 83 84 80 79 79 75 75
98 92 59 61 79 75 316 293 8 132 141 131 68 74 78 72 69 100 94 77 120 130 112 119 110 100 91 82 80 96 104 98 94 90 90 89 87 84 83 81 78 77 78 80 79 79 78 76 76
108 63 76 70 89 148 207 266 159 65 98 87 73 60 80 95 113 143 181 136 106 102 85 116 108 98 90 80 80 94 97 95 90 87 89 93 91 87 83 82 79 76 72 72 74 75 74 75 75
85 49 54 69 78 223 211 196 144 108 62 48 84 71 63 59 144 151 134 123 110 95 72 94 105 98 93 86 81 85 88 87 86 85 92 97 94 87 82 81 78 77 74 72 73 73 70 70 75
62 72 62 52 1 309 283 186 128 98 71 37 75 89 52 11 100 119 127 126 121 111 78 81 108 102 93 87 84 82 81 79 80 87 94 95 92 88 83 80 78 75 74 76 77 73 71 71 72
58 67 81 86 326 323 324 105 109 96 105 103 101 103 63 51 114 132 130 124 123 123 97 75 100 99 96 94 90 87 82 79 80 84 87 87 86 83 80 78 76 74 75 77 78 75 73 73 72
99 91 117 152 208 329 357 94 125 129 126 149 132 112 122 147 145 133 116 106 96 94 91 68 62 73 87 96 96 92 85 80 80 83 86 85 83 81 79 77 78 79 79 80 81 79 76 76 76
118 99 90 146 179 281 320 70 98 123 133 119 120 139 188 191 140 111 95 88 84 74 79 78 61 58 60 69 92 93 89 86 82 82 81 75 71 72 76 75 78 80 80 82 79 77 74 74 76
90 80 154 210 188 216 91 79 45 65 99 76 73 157 168 134 127 117 103 93 104 115 72 87 76 54 57 65 79 77 77 77 74 73 77 64 47 46 57 69 75 77 78 79 79 78 75 71 72
92 130 217 213 183 163 104 92 110 81 73 60 54 61 110 128 140 145 152 164 173 179 186 156 120 81 59 72 62 49 53 55 57 58 59 56 50 45 53 58 68 72 74 75 77 77 71 63 53
126 174 219 229 166 138 109 86 74 111 116 200 183 157 138 142 150 161 172 178 187 189 190 175 161 121 95 70 75 59 57 57 55 62 65 65 57 49 49 45 48 54 63 61 65 64 57 56 53
124 181 163 164 122 109 112 110 86 90 234 203 160 147 145 154 168 181 188 191 176 174 195 176 155 139 138 112 87 81 78 74 75 74 75 78 72 60 55 55 53 55 59 69 65 68 65 62 56
131 143 84 100 99 101 91 84 113 21 9 91 105 118 142 156 167 179 178 171 165 182 192 180 169 160 148 119 113 108 108 111 112 99 90 100 101 89 72 64 63 63 67 77 76 72 68 62 55
146 102 76 72 88 98 100 74 77 319 80 99 115 137 157 170 170 163 166 174 184 194 189 173 166 163 148 139 144 142 145 133 114 114 119 117 116 110 97 80 70 66 73 81 84 80 75 64 61
84 77 40 30 61 95 100 40 13 196 113 116 139 152 159 182 174 189 194 187 196 202 187 175 174 153 151 155 172 153 137 122 122 128 124 119 120 119 112 97 83 75 85 88 82 72 70 69 61
54 55 13 329 32 68 107 242 304 112 126 146 173 165 173 207 209 207 197 196 194 184 168 188 174 152 159 154 161 134 122 121 131 130 124 120 127 129 119 111 104 101 94 93 91 78 73 61 57
34 58 312 324 0 99 126 215 295 109 136 169 194 194 191 241 278 241 204 197 183 183 171 167 144 140 156 136 120 114 107 114 124 116 118 128 131 129 123 118 113 109 97 90 99 78 89 82 65
227 172 286 277 321 97 118 231 303 174 148 183 199 197 190 219 243 232 187 172 159 168 170 159 144 137 134 111 93 80 75 70 91 108 123 132 130 127 121 114 110 107 102 90 90 92 76 83 82
141 131 234 264 240 106 142 248 272 246 161 212 229 223 225 234 253 266 137 117 111 124 139 152 160 165 145 129 130 120 122 18 35 73 104 121 132 133 126 120 116 114 117 123 120 106 86 65 68
128 133 277 321 37 120 128 309 291 197 215 211 208 219 228 244 306 313 101 101 131 151 150 150 160 162 168 169 150 130 123 109 114 64 75 96 126 136 140 131 132 128 119 115 122 117 107 79 71
185 189 202 202 25 50 61 333 321 315 305 315 231 214 217 212 210 212 173 148 147 172 181 169 160 151 157 138 111 89 73 55 41 43 48 42 111 129 133 140 134 133 138 147 155 150 137 141 75
228 220 183 150 114 301 97 293 293 289 309 291 278 255 241 239 203 192 187 183 194 214 186 156 158 145 148 144 145 146 153 168 200 178 147 89 95 119 136 139 140 142 145 153 176 166 151 141 148
204 116 124 128 135 43 8 180 285 331 297 281 274 262 252 233 189 192 207 211 203 198 173 164 152 149 147 149 160 159 158 174 158 115 104 93 50 103 139 145 143 146 152 160 159 148 153 154 159
118 76 59 54 74 359 258 180 277 264 246 278 268 250 233 193 159 151 103 105 155 150 136 135 136 147 153 145 152 162 164 160 150 144 146 151 67 356 136 158 158 161 164 167 167 160 155 159 157
75 82 34 6 14 263 281 182 252 264 248 222 226 231 209 180 162 143 99 72 78 130 138 131 135 149 165 149 162 183 176 165 169 174 179 178 189 223 224 185 169 173 185 175 161 153 162 171 173
151 133 152 197 231 282 322 235 256 287 311 248 173 170 162 173 188 193 188 186 217 166 166 155 157 169 163 157 184 181 175 174 182 184 189 190 202 214 203 175 176 183 173 163 159 156 178 171 188
133 152 159 135 158 285 288 287 300 324 8 43 76 121 185 198 207 218 195 182 219 230 216 189 177 178 188 195 194 188 182 184 189 196 197 205 217 211 181 170 175 185 176 167 154 164 185 173 198
124 139 102 121 152 253 292 285 268 271 269 274 233 210 219 200 193 215 205 193 216 221 228 116 152 193 215 206 208 187 193 198 196 191 208 216 220 208 175 175 175 180 180 179 165 177 189 168 198
76 90 105 117 146 159 255 273 236 226 226 224 234 233 216 205 204 200 198 190 203 244 112 115 163 130 254 227 223 231 27 191 195 208 230 225 221 207 197 180 178 184 192 191 177 191 172 167 175
153 155 141 146 210 170 180 266 288 245 231 204 237 264 246 213 205 195 184 174 172 200 208 219 230 227 238 212 151 197 270 63 223 234 238 222 214 205 200 184 180 190 198 193 187 190 178 173 183